View from above orbital plane
|
View from above satellite
|
Ground track
|
The orbit data is extracted from the following two-line orbital elements,
1 28480U 04046B 21058.53768922 .00000071 00000-0 42088-4 0 9998
2 28480 98.0574 79.3718 0141736 189.0566 323.4382 14.25742345846762
Epoch (UTC): | 27 February 2021 12:54:16 |
Eccentricity: | 0.0141736 |
inclination: | 98.0574° |
perigee height: | 704 km |
apogee height: | 908 km |
right ascension of ascending node: | 79.3718° |
argument of perigee: | 189.0566° |
revolutions per day: | 14.25742345 |
mean anomaly at epoch: | 323.4382° |
orbit number at epoch: | 84676 |
The dashed part of the orbit path shows where the satellite is in the earth's shadow,
|
|